Home   Weather   Taichung   Past weeks
Flag for Taiwan

Past Weather in Taichung, Taiwan — Yesterday and Last 2 Weeks

Now
81 °F

Partly sunny.


Feels Like: 87 °F
Forecast: 87 / 78 °F
Wind: 9 mph from Southwest

Location: Chiang Kai Shek

Current Time: May 20, 2019 at 6:51:21 am

Latest Report: May 20, 2019 at 6:17 am


Visibility: N/A

Pressure: 29.71 "Hg

Humidity: 89%

Dew Point: 77 °F

Location of TaichungLocation

Past Weather in Taichung — Graph

°F

Taichung Temperature Yesterday

Maximum temperature yesterday: 90 °F (at 10:00 am)
Minimum temperature yesterday: 82 °F (at 12:00 am)
Average temperature yesterday: 85 °F

High & Low Weather Summary for the Past Weeks

 TemperatureHumidityPressure
High90 °F (May 16, 11:00 am)100% (May 9, 2:30 am)29.95 "Hg (May 9, 2:30 am)
Low64 °F (May 7, 3:00 am)55% (May 5, 9:30 am)29.59 "Hg (May 17, 4:30 pm)
Average77 °F86%29.79 "Hg
* Reported May 5 5:00 am — May 20 5:30 am, Taichung. Weather by CustomWeather, © 2019

Note: Actual official high and low records may vary slightly from our data, if they occured in-between our weather recording intervals... More about our weather records

Advertising

Taichung Weather History for the Previous 24 Hours

Scroll right to see more
 ConditionsComfort  
Time TempWeatherWind HumidityBarometerVisibility
5:30 am
Mon, May 20
81 °FPartly sunny.10 mph89%29.68 "HgN/A
5:00 am81 °FPassing clouds.8 mph89%29.68 "HgN/A
4:30 am81 °FPassing clouds.10 mph89%29.68 "HgN/A
4:00 am81 °FPassing clouds.8 mph89%29.68 "HgN/A
3:30 am81 °FPassing clouds.12 mph89%29.68 "HgN/A
3:00 am81 °FPassing clouds.12 mph89%29.68 "HgN/A
2:30 am82 °FPartly cloudy.12 mph89%29.71 "HgN/A
2:00 am82 °FPartly cloudy.12 mph89%29.71 "HgN/A
1:30 am82 °FPassing clouds.12 mph89%29.74 "HgN/A
1:00 am82 °FPassing clouds.12 mph89%29.74 "HgN/A
12:30 am82 °FPassing clouds.10 mph89%29.74 "HgN/A
12:00 am81 °FPassing clouds.8 mph94%29.74 "HgN/A
11:30 pm
Sun, May 19
82 °FPartly cloudy.12 mph89%29.74 "HgN/A
11:00 pm82 °FPartly cloudy.9 mph89%29.77 "HgN/A
10:30 pm82 °FPartly cloudy.14 mph89%29.77 "HgN/A
10:00 pm82 °FPartly cloudy.9 mph89%29.77 "HgN/A
9:30 pm82 °FPassing clouds.6 mph89%29.77 "HgN/A
9:00 pm82 °FPassing clouds.3 mph89%29.74 "HgN/A
8:30 pm82 °FPassing clouds.5 mph89%29.74 "HgN/A
8:00 pm84 °FPassing clouds.6 mph79%29.71 "HgN/A
7:30 pm84 °FPassing clouds.7 mph79%29.71 "HgN/A
7:00 pm86 °FPassing clouds.13 mph75%29.68 "HgN/A
6:30 pm86 °FPartly sunny.17 mph75%29.68 "HgN/A
6:00 pm86 °FPartly sunny.16 mph79%29.68 "HgN/A
5:30 pm86 °FPartly sunny.20 mph79%29.68 "HgN/A
5:00 pm88 °FPartly sunny.21 mph75%29.65 "HgN/A
4:30 pm88 °FPartly sunny.16 mph79%29.65 "HgN/A
4:00 pm86 °FPartly sunny.17 mph84%29.68 "HgN/A
3:30 pm88 °FPartly sunny.21 mph75%29.68 "HgN/A
3:00 pm88 °FPartly sunny.21 mph75%29.68 "HgN/A
2:30 pm88 °FPartly sunny.24 mph79%29.71 "HgN/A
2:00 pm86 °FPartly sunny.25 mph84%29.71 "HgN/A
1:30 pm88 °FPartly sunny.26 mph79%29.71 "HgN/A
1:00 pm88 °FBroken clouds.24 mph79%29.74 "HgN/A
12:42 pm90 °FPartly sunny.25 mph75%29.74 "HgN/A
12:30 pm90 °FPartly sunny.22 mph75%29.74 "HgN/A
12:00 pm88 °FPartly sunny.22 mph79%29.74 "HgN/A
11:30 am90 °FPartly sunny.25 mph75%29.74 "HgN/A
11:00 am88 °FPartly sunny.21 mph79%29.74 "HgN/A
10:30 am88 °FPartly sunny.22 mph75%29.74 "HgN/A
10:00 am90 °FScattered clouds.23 mph71%29.74 "HgN/A
9:30 am88 °FScattered clouds.23 mph79%29.74 "HgN/A
9:00 am88 °FScattered clouds.21 mph79%29.74 "HgN/A
8:30 am88 °FScattered clouds.22 mph75%29.71 "HgN/A
8:00 am86 °FPassing clouds.20 mph79%29.74 "HgN/A
7:39 am86 °FPassing clouds.21 mph84%29.71 "HgN/A
7:00 am84 °FPartly sunny.17 mph84%29.74 "HgN/A
6:30 am84 °FPartly sunny.16 mph84%29.71 "HgN/A
6:00 am82 °FPartly sunny.16 mph89%29.71 "HgN/A
Weather by CustomWeather, © 2019

See weather overview